| time (UTC) | temp F | wind direction | speed MPH | gust MPH | rain 1hr in | rain 24hr in | rain mn in | humidity % | barometer mb |
| 20260831230732 | 74 | 327 | 0.0 | 10.0 | 0.00 | 0.01 | 0.00 | 50 | 1035.1 |
| 20260831230235 | 74 | 359 | 0.0 | 0.0 | 0.00 | 0.01 | 0.00 | 49 | 1035.2 |
| 20260831225732 | 74 | 359 | 0.0 | 4.0 | 0.00 | 0.01 | 0.00 | 48 | 1035.1 |
| 20260831225232 | 75 | 35 | 2.0 | 10.0 | 0.00 | 0.01 | 0.00 | 47 | 1034.9 |
| 20260831224735 | 75 | 94 | 0.0 | 18.0 | 0.00 | 0.01 | 0.00 | 46 | 1035.0 |
| 20260831224235 | 76 | 73 | 6.0 | 8.0 | 0.00 | 0.01 | 0.00 | 45 | 1034.9 |
| 20260831223732 | 76 | 46 | 0.0 | 12.0 | 0.00 | 0.01 | 0.00 | 44 | 1034.9 |
| 20260831223232 | 77 | 35 | 0.0 | 11.0 | 0.00 | 0.01 | 0.00 | 43 | 1034.8 |
| 20260831222732 | 77 | 18 | 0.0 | 9.0 | 0.00 | 0.01 | 0.00 | 44 | 1034.9 |
| 20260831222235 | 77 | 20 | 0.0 | 7.0 | 0.00 | 0.01 | 0.00 | 44 | 1035.0 |
| 20260831221735 | 77 | 3 | 4.0 | 13.0 | 0.00 | 0.01 | 0.00 | 43 | 1034.8 |
| 20260831221232 | 79 | 39 | 5.0 | 8.0 | 0.00 | 0.01 | 0.00 | 41 | 1034.9 |
| 20260831220732 | 79 | 139 | 0.0 | 4.0 | 0.00 | 0.01 | 0.00 | 38 | 1034.8 |
| 20260831220232 | 79 | 79 | 0.0 | 1.0 | 0.00 | 0.01 | 0.00 | 40 | 1034.7 |
| 20260831215732 | 79 | 3 | 0.0 | 11.0 | 0.00 | 0.01 | 0.00 | 39 | 1034.6 |
| 20260831215232 | 79 | 27 | 0.0 | 7.0 | 0.00 | 0.01 | 0.00 | 40 | 1034.7 |
| 20260831214735 | 80 | 82 | 0.0 | 1.0 | 0.00 | 0.01 | 0.00 | 38 | 1034.7 |
| 20260831214232 | 80 | 82 | 0.0 | 1.0 | 0.00 | 0.01 | 0.00 | 35 | 1034.7 |
| 20260831213735 | 80 | 145 | 1.0 | 8.0 | 0.00 | 0.01 | 0.00 | 36 | 1034.7 |
| 20260831213232 | 80 | 142 | 0.0 | 4.0 | 0.00 | 0.01 | 0.00 | 36 | 1034.7 |
| 20260831212732 | 80 | 179 | 0.0 | 9.0 | 0.00 | 0.01 | 0.00 | 34 | 1034.7 |
| 20260831212232 | 80 | 158 | 0.0 | 12.0 | 0.00 | 0.01 | 0.00 | 34 | 1034.7 |
| 20260831211732 | 81 | 169 | 5.0 | 8.0 | 0.00 | 0.01 | 0.00 | 33 | 1034.7 |
| 20260831211232 | 82 | 238 | 4.0 | 3.0 | 0.00 | 0.01 | 0.00 | 33 | 1034.7 |
| 20260831210735 | 83 | 222 | 0.0 | 0.0 | 0.00 | 0.01 | 0.00 | 32 | 1034.7 |
| 20260831210232 | 83 | 210 | 0.0 | 0.0 | 0.00 | 0.01 | 0.00 | 34 | 1034.8 |
| 20260831205735 | 82 | 169 | 0.0 | 12.0 | 0.00 | 0.01 | 0.00 | 34 | 1034.8 |
| 20260831205232 | 81 | 262 | 0.0 | 0.0 | 0.00 | 0.01 | 0.00 | 37 | 1034.8 |
| 20260831204735 | 81 | 212 | 0.0 | 9.0 | 0.00 | 0.01 | 0.00 | 39 | 1034.7 |
| 20260831204232 | 82 | 328 | 0.0 | 12.0 | 0.00 | 0.01 | 0.00 | 37 | 1034.6 |
| 20260831203735 | 81 | 221 | 0.0 | 0.0 | 0.00 | 0.01 | 0.00 | 35 | 1034.7 |
| 20260831203235 | 80 | 218 | 0.0 | 0.0 | 0.00 | 0.01 | 0.00 | 36 | 1034.7 |
| 20260831202735 | 80 | 160 | 0.0 | 7.0 | 0.00 | 0.01 | 0.00 | 37 | 1034.8 |
| 20260831202232 | 80 | 250 | 6.0 | 9.0 | 0.00 | 0.01 | 0.00 | 38 | 1034.8 |
| 20260831201732 | 80 | 173 | 0.0 | 0.0 | 0.00 | 0.01 | 0.00 | 38 | 1034.7 |
| 20260831201235 | 81 | 240 | 0.0 | 3.0 | 0.00 | 0.01 | 0.00 | 35 | 1034.7 |
| 20260831200732 | 82 | 229 | 0.0 | 6.0 | 0.00 | 0.01 | 0.00 | 35 | 1034.6 |
| 20260831200235 | 82 | 148 | 0.0 | 8.0 | 0.00 | 0.01 | 0.00 | 33 | 1034.6 |
| 20260831195732 | 82 | 256 | 0.0 | 4.0 | 0.00 | 0.01 | 0.00 | 31 | 1034.6 |
| 20260831195232 | 82 | 141 | 3.0 | 4.0 | 0.00 | 0.01 | 0.00 | 32 | 1034.8 |
| 20260831194732 | 80 | 153 | 0.0 | 0.0 | 0.00 | 0.01 | 0.00 | 34 | 1034.9 |
| 20260831194235 | 79 | 188 | 0.0 | 10.0 | 0.00 | 0.01 | 0.00 | 35 | 1034.9 |
| 20260831193732 | 80 | 160 | 0.0 | 0.0 | 0.00 | 0.01 | 0.00 | 34 | 1034.9 |
| 20260831193232 | 80 | 162 | 0.0 | 0.0 | 0.00 | 0.01 | 0.00 | 33 | 1034.9 |
| 20260831192732 | 80 | 237 | 0.0 | 0.0 | 0.00 | 0.01 | 0.00 | 34 | 1034.9 |
| 20260831192235 | 80 | 252 | 0.0 | 0.0 | 0.00 | 0.01 | 0.00 | 34 | 1034.9 |
| 20260831191735 | 80 | 239 | 0.0 | 0.0 | 0.00 | 0.01 | 0.00 | 35 | 1034.9 |
| 20260831191232 | 80 | 210 | 0.0 | 0.0 | 0.00 | 0.01 | 0.00 | 34 | 1034.9 |
| 20260831190732 | 81 | 117 | 0.0 | 0.0 | 0.00 | 0.01 | 0.00 | 32 | 1034.9 |
| 20260831190235 | 81 | 152 | 0.0 | 0.0 | 0.00 | 0.01 | 0.00 | 33 | 1034.9 |
| 20260831185731 | 81 | 98 | 0.0 | 5.0 | 0.00 | 0.01 | 0.00 | 34 | 1035.0 |
| 20260831185235 | 80 | 89 | 0.0 | 0.0 | 0.00 | 0.01 | 0.00 | 33 | 1035.0 |
| 20260831184732 | 81 | 52 | 0.0 | 0.0 | 0.00 | 0.01 | 0.00 | 33 | 1035.1 |
| 20260831184235 | 79 | 160 | 0.0 | 0.0 | 0.00 | 0.01 | 0.00 | 34 | 1035.2 |
| 20260831183732 | 78 | 149 | 0.0 | 0.0 | 0.00 | 0.01 | 0.00 | 35 | 1035.2 |
| 20260831183235 | 78 | 105 | 0.0 | 0.0 | 0.00 | 0.01 | 0.00 | 35 | 1035.1 |
| 20260831182735 | 79 | 142 | 0.0 | 0.0 | 0.00 | 0.01 | 0.00 | 35 | 1035.2 |
| 20260831182234 | 78 | 158 | 0.0 | 0.0 | 0.00 | 0.01 | 0.00 | 36 | 1035.2 |
| 20260831181735 | 77 | 173 | 0.0 | 0.0 | 0.00 | 0.01 | 0.00 | 36 | 1035.3 |
| 20260831181232 | 76 | 133 | 0.0 | 0.0 | 0.00 | 0.01 | 0.00 | 39 | 1035.3 |
| 20260831180732 | 77 | 47 | 0.0 | 8.0 | 0.00 | 0.01 | 0.00 | 37 | 1035.3 |
| 20260831180234 | 77 | 0 | 0.0 | 10.0 | 0.00 | 0.01 | 0.00 | 37 | 1035.2 |
| 20260831175734 | 78 | 343 | 0.0 | 8.0 | 0.00 | 0.01 | 0.00 | 37 | 1035.1 |
| 20260831175231 | 78 | 70 | 0.0 | 8.0 | 0.00 | 0.01 | 0.00 | 39 | 1035.2 |
| 20260831174735 | 77 | 81 | 0.0 | 7.0 | 0.00 | 0.01 | 0.00 | 39 | 1035.2 |
| 20260831174235 | 76 | 9 | 0.0 | 1.0 | 0.00 | 0.01 | 0.00 | 40 | 1035.1 |
| 20260831173735 | 76 | 321 | 0.0 | 4.0 | 0.00 | 0.01 | 0.00 | 41 | 1035.2 |
| 20260831173234 | 75 | 13 | 0.0 | 0.0 | 0.00 | 0.01 | 0.00 | 42 | 1035.2 |
| 20260831172734 | 74 | 318 | 0.0 | 3.0 | 0.00 | 0.01 | 0.00 | 43 | 1035.3 |
| 20260831172231 | 74 | 22 | 0.0 | 1.0 | 0.00 | 0.01 | 0.00 | 44 | 1035.4 |
| 20260831171734 | 73 | 101 | 0.0 | 6.0 | 0.00 | 0.01 | 0.00 | 44 | 1035.4 |
| 20260831171231 | 73 | 9 | 6.0 | 12.0 | 0.00 | 0.01 | 0.00 | 47 | 1035.5 |
| 20260831170735 | 72 | 96 | 0.0 | 3.0 | 0.00 | 0.01 | 0.00 | 47 | 1035.5 |
| 20260831170234 | 71 | 82 | 0.0 | 8.0 | 0.00 | 0.01 | 0.00 | 48 | 1035.5 |
| 20260831165732 | 71 | 48 | 1.0 | 0.0 | 0.00 | 0.01 | 0.00 | 48 | 1035.6 |
| 20260831165235 | 71 | 296 | 0.0 | 0.0 | 0.00 | 0.01 | 0.00 | 50 | 1035.6 |
| 20260831164732 | 70 | 18 | 0.0 | 7.0 | 0.00 | 0.01 | 0.00 | 50 | 1035.6 |
| 20260831164231 | 70 | 359 | 0.0 | 9.0 | 0.00 | 0.01 | 0.00 | 50 | 1035.6 |
| 20260831163734 | 71 | 94 | 0.0 | 0.0 | 0.00 | 0.01 | 0.00 | 50 | 1035.6 |
| 20260831163231 | 70 | 101 | 0.0 | 7.0 | 0.00 | 0.01 | 0.00 | 51 | 1035.6 |
| 20260831162731 | 70 | 77 | 0.0 | 7.0 | 0.00 | 0.01 | 0.00 | 51 | 1035.7 |
| 20260831162234 | 69 | 53 | 0.0 | 0.0 | 0.00 | 0.01 | 0.00 | 52 | 1035.6 |
| 20260831161731 | 69 | 23 | 0.0 | 0.0 | 0.00 | 0.01 | 0.00 | 53 | 1035.7 |
| 20260831161234 | 68 | 89 | 0.0 | 9.0 | 0.00 | 0.01 | 0.00 | 54 | 1035.8 |
| 20260831160731 | 68 | 22 | 4.0 | 9.0 | 0.00 | 0.01 | 0.00 | 55 | 1035.8 |
| 20260831160231 | 67 | 13 | 9.0 | 12.0 | 0.00 | 0.01 | 0.00 | 56 | 1035.8 |
| 20260831155734 | 66 | 79 | 6.0 | 12.0 | 0.00 | 0.01 | 0.00 | 59 | 1035.9 |
| 20260831155231 | 66 | 82 | 3.0 | 6.0 | 0.00 | 0.01 | 0.00 | 61 | 1035.9 |
| 20260831154734 | 66 | 26 | 0.0 | 11.0 | 0.00 | 0.01 | 0.00 | 61 | 1036.0 |
| 20260831154231 | 65 | 340 | 0.0 | 6.0 | 0.00 | 0.01 | 0.00 | 65 | 1036.1 |
| 20260831153735 | 64 | 36 | 6.0 | 9.0 | 0.00 | 0.01 | 0.00 | 65 | 1036.1 |
| 20260831153231 | 64 | 9 | 5.0 | 8.0 | 0.00 | 0.01 | 0.00 | 66 | 1036.0 |
| 20260831152734 | 63 | 18 | 0.0 | 10.0 | 0.00 | 0.01 | 0.00 | 66 | 1036.0 |
| 20260831152232 | 64 | 96 | 8.0 | 10.0 | 0.00 | 0.01 | 0.00 | 66 | 1036.1 |
| 20260831151734 | 64 | 55 | 0.0 | 7.0 | 0.00 | 0.01 | 0.00 | 65 | 1036.0 |
| 20260831151234 | 63 | 77 | 0.0 | 10.0 | 0.00 | 0.01 | 0.00 | 66 | 1036.2 |
| 20260831150731 | 64 | 77 | 6.0 | 9.0 | 0.00 | 0.01 | 0.00 | 65 | 1036.2 |
| 20260831150231 | 64 | 55 | 2.0 | 2.0 | 0.00 | 0.01 | 0.00 | 65 | 1036.3 |
| 20260831145734 | 64 | 210 | 0.0 | 6.0 | 0.00 | 0.01 | 0.00 | 65 | 1036.3 |
| 20260831145234 | 64 | 115 | 0.0 | 4.0 | 0.00 | 0.01 | 0.00 | 66 | 1036.4 |
| 20260831144734 | 64 | 41 | 0.0 | 8.0 | 0.00 | 0.01 | 0.00 | 67 | 1036.4 |
| 20260831144234 | 63 | 68 | 0.0 | 0.0 | 0.00 | 0.01 | 0.00 | 68 | 1036.5 |
| 20260831143731 | 62 | 21 | 0.0 | 8.0 | 0.00 | 0.01 | 0.00 | 69 | 1036.5 |
| 20260831143231 | 62 | 30 | 0.0 | 0.0 | 0.00 | 0.01 | 0.00 | 71 | 1036.7 |
| 20260831142731 | 62 | 18 | 0.0 | 6.0 | 0.00 | 0.01 | 0.00 | 70 | 1036.7 |
| 20260831142232 | 62 | 99 | 0.0 | 0.0 | 0.00 | 0.01 | 0.00 | 69 | 1036.7 |
| 20260831141734 | 63 | 65 | 0.0 | 0.0 | 0.00 | 0.01 | 0.00 | 68 | 1036.7 |
| 20260831141234 | 63 | 91 | 0.0 | 0.0 | 0.00 | 0.01 | 0.00 | 67 | 1036.7 |
| 20260831140732 | 64 | 23 | 0.0 | 0.0 | 0.00 | 0.01 | 0.00 | 64 | 1036.8 |
| 20260831140231 | 64 | 76 | 0.0 | 0.0 | 0.00 | 0.01 | 0.00 | 65 | 1036.9 |
| 20260831135734 | 64 | 41 | 0.0 | 0.0 | 0.00 | 0.01 | 0.00 | 65 | 1036.9 |
| 20260831135234 | 64 | 79 | 0.0 | 0.0 | 0.00 | 0.01 | 0.00 | 64 | 1036.8 |
| 20260831134731 | 63 | 94 | 0.0 | 0.0 | 0.00 | 0.01 | 0.00 | 65 | 1037.0 |
| 20260831134235 | 63 | 104 | 0.0 | 0.0 | 0.00 | 0.01 | 0.00 | 66 | 1037.0 |
| 20260831133732 | 63 | 66 | 0.0 | 0.0 | 0.00 | 0.01 | 0.00 | 65 | 1037.1 |
| 20260831133234 | 63 | 160 | 0.0 | 0.0 | 0.00 | 0.01 | 0.00 | 66 | 1037.1 |
| 20260831132731 | 62 | 160 | 0.0 | 0.0 | 0.00 | 0.01 | 0.00 | 65 | 1037.1 |
| 20260831132234 | 62 | 160 | 0.0 | 0.0 | 0.00 | 0.01 | 0.00 | 65 | 1037.2 |
| 20260831131731 | 63 | 160 | 0.0 | 0.0 | 0.00 | 0.01 | 0.00 | 64 | 1037.2 |
| 20260831131234 | 63 | 148 | 0.0 | 0.0 | 0.00 | 0.01 | 0.00 | 63 | 1037.0 |
| 20260831130734 | 62 | 164 | 0.0 | 0.0 | 0.00 | 0.01 | 0.00 | 63 | 1036.9 |
| 20260831130234 | 62 | 163 | 0.0 | 0.0 | 0.00 | 0.01 | 0.00 | 62 | 1036.8 |
| 20260831125732 | 62 | 94 | 0.0 | 0.0 | 0.00 | 0.01 | 0.00 | 60 | 1036.8 |
| 20260831125234 | 62 | 94 | 0.0 | 0.0 | 0.00 | 0.01 | 0.00 | 60 | 1036.7 |
| 20260831124735 | 62 | 327 | 0.0 | 0.0 | 0.00 | 0.01 | 0.00 | 60 | 1036.4 |
| 20260831124231 | 62 | 218 | 0.0 | 0.0 | 0.00 | 0.01 | 0.00 | 60 | 1036.3 |
| 20260831123734 | 62 | 41 | 0.0 | 0.0 | 0.00 | 0.01 | 0.00 | 61 | 1036.3 |
| 20260831123231 | 61 | 352 | 0.0 | 0.0 | 0.01 | 0.01 | 0.00 | 62 | 1036.4 |
| 20260831122734 | 61 | 310 | 0.0 | 5.0 | 0.01 | 0.01 | 0.00 | 63 | 1036.6 |
| 20260831122234 | 61 | 314 | 2.0 | 0.0 | 0.01 | 0.01 | 0.00 | 64 | 1036.6 |
| 20260831121735 | 61 | 256 | 0.0 | 0.0 | 0.01 | 0.01 | 0.00 | 64 | 1036.8 |
| 20260831121231 | 61 | 256 | 0.0 | 0.0 | 0.01 | 0.01 | 0.00 | 65 | 1037.0 |
| 20260831120731 | 60 | 321 | 0.0 | 0.0 | 0.01 | 0.01 | 0.00 | 67 | 1037.1 |
| 20260831120235 | 59 | 243 | 0.0 | 0.0 | 0.01 | 0.01 | 0.00 | 70 | 1037.3 |
| 20260831115731 | 59 | 241 | 0.0 | 0.0 | 0.01 | 0.01 | 0.00 | 71 | 1037.6 |
| 20260831115234 | 59 | 242 | 0.0 | 0.0 | 0.01 | 0.01 | 0.00 | 74 | 1037.7 |
| 20260831114732 | 59 | 242 | 0.0 | 0.0 | 0.01 | 0.01 | 0.00 | 74 | 1037.8 |
| 20260831114234 | 59 | 163 | 0.0 | 0.0 | 0.01 | 0.01 | 0.00 | 74 | 1037.9 |
| 20260831113731 | 60 | 155 | 0.0 | 0.0 | 0.01 | 0.01 | 0.00 | 71 | 1037.9 |
| 20260831113232 | 61 | 154 | 0.0 | 2.0 | 0.00 | 0.00 | 0.00 | 67 | 1038.1 |
| 20260831112732 | 61 | 166 | 2.0 | 4.0 | 0.00 | 0.00 | 0.00 | 66 | 1038.0 |
| 20260831112234 | 62 | 197 | 0.0 | 0.0 | 0.00 | 0.00 | 0.00 | 64 | 1037.6 |
| 20260831111734 | 62 | 76 | 0.0 | 8.0 | 0.00 | 0.00 | 0.00 | 62 | 1037.2 |
| 20260831111234 | 62 | 65 | 1.0 | 11.0 | 0.00 | 0.00 | 0.00 | 61 | 1037.0 |
| 20260831110735 | 62 | 53 | 5.0 | 13.0 | 0.00 | 0.00 | 0.00 | 60 | 1037.0 |
| 20260831110234 | 63 | 330 | 0.0 | 10.0 | 0.00 | 0.00 | 0.00 | 58 | 1037.2 |
| 20260831105732 | 64 | 79 | 9.0 | 16.0 | 0.00 | 0.00 | 0.00 | 55 | 1037.2 |
| 20260831105231 | 64 | 61 | 0.0 | 7.0 | 0.00 | 0.00 | 0.00 | 55 | 1037.2 |
| 20260831104734 | 64 | 304 | 0.0 | 9.0 | 0.00 | 0.00 | 0.00 | 54 | 1037.2 |
| 20260831104234 | 64 | 274 | 0.0 | 6.0 | 0.00 | 0.00 | 0.00 | 53 | 1037.4 |
| 20260831103735 | 64 | 120 | 0.0 | 9.0 | 0.00 | 0.00 | 0.00 | 53 | 1037.4 |
| 20260831103231 | 65 | 345 | 0.0 | 9.0 | 0.00 | 0.00 | 0.00 | 52 | 1037.5 |
| 20260831102731 | 65 | 41 | 7.0 | 9.0 | 0.00 | 0.00 | 0.00 | 52 | 1037.5 |
| 20260831102235 | 65 | 27 | 0.0 | 9.0 | 0.00 | 0.00 | 0.00 | 52 | 1037.6 |
| 20260831101731 | 65 | 68 | 0.0 | 5.0 | 0.00 | 0.00 | 0.00 | 52 | 1037.6 |
| 20260831101234 | 65 | 55 | 3.0 | 8.0 | 0.00 | 0.00 | 0.00 | 51 | 1037.6 |
| 20260831100734 | 65 | 73 | 0.0 | 8.0 | 0.00 | 0.00 | 0.00 | 50 | 1037.7 |
| 20260831100231 | 66 | 343 | 0.0 | 12.0 | 0.00 | 0.00 | 0.00 | 50 | 1037.7 |
| 20260831095731 | 65 | 49 | 0.0 | 7.0 | 0.00 | 0.00 | 0.00 | 50 | 1037.7 |
| 20260831095234 | 66 | 352 | 0.0 | 11.0 | 0.00 | 0.00 | 0.00 | 50 | 1037.7 |
| 20260831094731 | 65 | 356 | 2.0 | 13.0 | 0.00 | 0.00 | 0.00 | 50 | 1037.7 |
| 20260831094234 | 65 | 104 | 0.0 | 11.0 | 0.00 | 0.00 | 0.00 | 50 | 1037.6 |
| 20260831093734 | 66 | 0 | 0.0 | 10.0 | 0.00 | 0.00 | 0.00 | 50 | 1037.7 |
| 20260831093234 | 66 | 35 | 1.0 | 14.0 | 0.00 | 0.00 | 0.00 | 50 | 1037.7 |
| 20260831092734 | 66 | 77 | 0.0 | 8.0 | 0.00 | 0.00 | 0.00 | 50 | 1037.7 |
| 20260831092231 | 66 | 18 | 0.0 | 9.0 | 0.00 | 0.00 | 0.00 | 50 | 1037.7 |
| 20260831091734 | 66 | 7 | 4.0 | 13.0 | 0.00 | 0.00 | 0.00 | 50 | 1037.9 |
| 20260831091231 | 66 | 55 | 0.0 | 11.0 | 0.00 | 0.00 | 0.00 | 51 | 1038.0 |
| 20260831090735 | 66 | 6 | 5.0 | 13.0 | 0.00 | 0.00 | 0.00 | 51 | 1038.0 |
| 20260831090234 | 66 | 55 | 6.0 | 12.0 | 0.00 | 0.00 | 0.00 | 51 | 1038.1 |
| 20260831085731 | 66 | 33 | 9.0 | 13.0 | 0.00 | 0.00 | 0.00 | 50 | 1038.3 |
| 20260831085234 | 66 | 87 | 5.0 | 16.0 | 0.00 | 0.00 | 0.00 | 50 | 1038.1 |
| 20260831084731 | 66 | 352 | 2.0 | 16.0 | 0.00 | 0.00 | 0.00 | 51 | 1038.1 |
| 20260831084234 | 66 | 18 | 8.0 | 13.0 | 0.00 | 0.00 | 0.00 | 51 | 1038.1 |
| 20260831083731 | 66 | 79 | 0.0 | 12.0 | 0.00 | 0.00 | 0.00 | 51 | 1038.2 |
| 20260831083231 | 66 | 257 | 2.0 | 13.0 | 0.00 | 0.00 | 0.00 | 52 | 1038.1 |
| 20260831082731 | 66 | 46 | 9.0 | 11.0 | 0.00 | 0.00 | 0.00 | 52 | 1038.2 |
| 20260831082235 | 66 | 84 | 1.0 | 7.0 | 0.00 | 0.00 | 0.00 | 53 | 1038.2 |
| 20260831081734 | 66 | 315 | 0.0 | 9.0 | 0.00 | 0.00 | 0.00 | 52 | 1038.3 |
| 20260831081234 | 66 | 92 | 1.0 | 11.0 | 0.00 | 0.00 | 0.00 | 52 | 1038.3 |
| 20260831080731 | 66 | 58 | 3.0 | 11.0 | 0.00 | 0.00 | 0.00 | 52 | 1038.4 |
| 20260831080234 | 66 | 340 | 4.0 | 9.0 | 0.00 | 0.01 | 0.00 | 52 | 1038.4 |
| 20260831075734 | 66 | 41 | 0.0 | 10.0 | 0.00 | 0.01 | 0.00 | 53 | 1038.4 |
| 20260831075231 | 66 | 53 | 3.0 | 11.0 | 0.00 | 0.01 | 0.00 | 52 | 1038.5 |
| 20260831074731 | 66 | 61 | 0.0 | 7.0 | 0.00 | 0.01 | 0.00 | 50 | 1038.6 |
| 20260831074234 | 67 | 55 | 0.0 | 0.0 | 0.00 | 0.01 | 0.00 | 49 | 1038.7 |
| 20260831073731 | 67 | 86 | 0.0 | 0.0 | 0.00 | 0.01 | 0.00 | 49 | 1038.6 |
| 20260831073231 | 67 | 104 | 0.0 | 0.0 | 0.00 | 0.01 | 0.00 | 47 | 1038.5 |
| 20260831072734 | 68 | 94 | 0.0 | 0.0 | 0.00 | 0.01 | 0.00 | 47 | 1038.5 |
| 20260831072234 | 68 | 25 | 0.0 | 0.0 | 0.00 | 0.01 | 0.00 | 46 | 1038.5 |
| 20260831071734 | 68 | 20 | 0.0 | 0.0 | 0.00 | 0.01 | 0.00 | 44 | 1038.5 |
| 20260831071234 | 68 | 20 | 0.0 | 0.0 | 0.00 | 0.01 | 0.00 | 45 | 1038.4 |
| 20260831070734 | 67 | 20 | 0.0 | 0.0 | 0.00 | 0.01 | 0.00 | 45 | 1038.4 |
| 20260831070234 | 67 | 20 | 0.0 | 0.0 | 0.00 | 0.01 | 0.00 | 46 | 1038.6 |
| 20260831065734 | 67 | 20 | 0.0 | 0.0 | 0.00 | 0.01 | 0.00 | 46 | 1038.5 |
| 20260831065234 | 68 | 20 | 0.0 | 0.0 | 0.00 | 0.01 | 0.00 | 45 | 1038.5 |
| 20260831064734 | 68 | 252 | 0.0 | 0.0 | 0.00 | 0.01 | 0.00 | 44 | 1038.5 |
| 20260831064234 | 68 | 253 | 0.0 | 0.0 | 0.00 | 0.01 | 0.00 | 44 | 1038.4 |
| 20260831063731 | 68 | 253 | 0.0 | 0.0 | 0.00 | 0.01 | 0.00 | 45 | 1038.3 |
| 20260831063234 | 68 | 253 | 0.0 | 0.0 | 0.00 | 0.01 | 0.00 | 45 | 1038.4 |
| 20260831062734 | 68 | 276 | 0.0 | 0.0 | 0.00 | 0.01 | 0.00 | 45 | 1038.4 |
| 20260831062231 | 67 | 81 | 0.0 | 0.0 | 0.00 | 0.01 | 0.00 | 46 | 1038.5 |
| 20260831061731 | 67 | 80 | 0.0 | 0.0 | 0.00 | 0.01 | 0.00 | 47 | 1038.5 |
| 20260831061231 | 68 | 80 | 0.0 | 0.0 | 0.00 | 0.01 | 0.00 | 45 | 1038.5 |
| 20260831060731 | 68 | 79 | 0.0 | 0.0 | 0.00 | 0.01 | 0.00 | 45 | 1038.6 |
| 20260831060234 | 69 | 70 | 0.0 | 0.0 | 0.00 | 0.01 | 0.00 | 44 | 1038.6 |
| 20260831055731 | 70 | 76 | 0.0 | 3.0 | 0.00 | 0.01 | 0.00 | 43 | 1038.5 |
| 20260831055234 | 71 | 18 | 0.0 | 10.0 | 0.00 | 0.01 | 0.00 | 40 | 1038.5 |
| 20260831054734 | 71 | 15 | 5.0 | 5.0 | 0.00 | 0.01 | 0.00 | 39 | 1038.5 |
| 20260831054231 | 72 | 96 | 0.0 | 0.0 | 0.00 | 0.01 | 0.00 | 39 | 1038.5 |
| 20260831053734 | 72 | 252 | 0.0 | 0.0 | 0.00 | 0.01 | 0.00 | 37 | 1038.5 |
| 20260831053234 | 72 | 253 | 0.0 | 0.0 | 0.00 | 0.01 | 0.00 | 36 | 1038.5 |
| 20260831052731 | 72 | 252 | 0.0 | 0.0 | 0.00 | 0.01 | 0.00 | 37 | 1038.6 |
| 20260831052231 | 72 | 250 | 0.0 | 0.0 | 0.00 | 0.01 | 0.00 | 38 | 1038.7 |
| 20260831051734 | 72 | 248 | 0.0 | 0.0 | 0.00 | 0.01 | 0.00 | 38 | 1038.7 |
| 20260831051231 | 72 | 248 | 0.0 | 0.0 | 0.00 | 0.01 | 0.00 | 39 | 1038.8 |
| 20260831050731 | 72 | 249 | 0.0 | 0.0 | 0.00 | 0.01 | 0.00 | 39 | 1038.7 |
| 20260831050231 | 72 | 347 | 0.0 | 0.0 | 0.00 | 0.01 | 0.00 | 39 | 1038.6 |
| 20260831045734 | 72 | 347 | 0.0 | 0.0 | 0.00 | 0.01 | 0.00 | 38 | 1038.6 |
| 20260831045235 | 72 | 321 | 0.0 | 0.0 | 0.00 | 0.01 | 0.00 | 39 | 1038.6 |
| 20260831044734 | 72 | 322 | 0.0 | 0.0 | 0.00 | 0.01 | 0.00 | 37 | 1038.6 |
| 20260831044234 | 73 | 321 | 0.0 | 0.0 | 0.00 | 0.01 | 0.00 | 38 | 1038.6 |
| 20260831043734 | 73 | 321 | 0.0 | 0.0 | 0.00 | 0.01 | 0.00 | 37 | 1038.6 |
| 20260831043234 | 73 | 321 | 0.0 | 0.0 | 0.00 | 0.01 | 0.00 | 37 | 1038.8 |
| 20260831042734 | 72 | 264 | 0.0 | 0.0 | 0.00 | 0.01 | 0.00 | 38 | 1038.7 |
| 20260831042234 | 72 | 281 | 0.0 | 0.0 | 0.00 | 0.01 | 0.00 | 40 | 1038.7 |
| 20260831041731 | 72 | 240 | 0.0 | 0.0 | 0.00 | 0.01 | 0.00 | 41 | 1038.6 |
| 20260831041231 | 72 | 255 | 0.0 | 0.0 | 0.00 | 0.01 | 0.00 | 40 | 1038.5 |
| 20260831040734 | 72 | 253 | 0.0 | 0.0 | 0.00 | 0.01 | 0.00 | 41 | 1038.6 |
| 20260831040231 | 72 | 253 | 0.0 | 0.0 | 0.00 | 0.01 | 0.00 | 41 | 1038.5 |
| 20260831035734 | 72 | 253 | 0.0 | 0.0 | 0.00 | 0.01 | 0.00 | 42 | 1038.7 |
| 20260831035234 | 71 | 252 | 0.0 | 0.0 | 0.00 | 0.01 | 0.00 | 42 | 1038.6 |
| 20260831034734 | 72 | 253 | 0.0 | 0.0 | 0.00 | 0.01 | 0.00 | 42 | 1038.6 |
| 20260831034231 | 72 | 252 | 0.0 | 0.0 | 0.00 | 0.01 | 0.00 | 42 | 1038.6 |
| 20260831033731 | 72 | 253 | 0.0 | 0.0 | 0.00 | 0.01 | 0.00 | 41 | 1038.5 |
| 20260831033231 | 72 | 253 | 0.0 | 0.0 | 0.00 | 0.01 | 0.00 | 42 | 1038.5 |
| 20260831032734 | 72 | 252 | 0.0 | 0.0 | 0.00 | 0.01 | 0.00 | 41 | 1038.4 |
| 20260831032234 | 72 | 253 | 0.0 | 0.0 | 0.00 | 0.02 | 0.00 | 41 | 1038.3 |
| 20260831031734 | 72 | 253 | 0.0 | 0.0 | 0.00 | 0.03 | 0.00 | 40 | 1038.1 |
| 20260831031231 | 72 | 253 | 0.0 | 0.0 | 0.00 | 0.04 | 0.00 | 39 | 1038.0 |
| 20260831030731 | 73 | 252 | 0.0 | 0.0 | 0.00 | 0.04 | 0.00 | 39 | 1037.9 |
| 20260831030231 | 73 | 253 | 0.0 | 0.0 | 0.00 | 0.04 | 0.00 | 40 | 1037.9 |
| 20260831025734 | 73 | 253 | 0.0 | 0.0 | 0.00 | 0.04 | 0.00 | 40 | 1037.8 |
| 20260831025231 | 72 | 253 | 0.0 | 0.0 | 0.00 | 0.04 | 0.00 | 39 | 1037.7 |
| 20260831024734 | 72 | 252 | 0.0 | 0.0 | 0.00 | 0.04 | 0.00 | 41 | 1037.6 |
| 20260831024231 | 72 | 253 | 0.0 | 0.0 | 0.00 | 0.04 | 0.00 | 40 | 1037.6 |
| 20260831023731 | 73 | 253 | 0.0 | 0.0 | 0.00 | 0.04 | 0.00 | 41 | 1037.4 |
| 20260831023231 | 73 | 252 | 0.0 | 0.0 | 0.00 | 0.04 | 0.00 | 40 | 1037.4 |
| 20260831022731 | 73 | 253 | 0.0 | 0.0 | 0.00 | 0.04 | 0.00 | 39 | 1037.3 |
| 20260831022231 | 73 | 252 | 0.0 | 0.0 | 0.00 | 0.04 | 0.00 | 39 | 1037.2 |
| 20260831021731 | 74 | 253 | 0.0 | 0.0 | 0.00 | 0.06 | 0.00 | 39 | 1037.1 |
| 20260831021234 | 73 | 252 | 0.0 | 0.0 | 0.00 | 0.22 | 0.00 | 38 | 1037.0 |
| 20260831020734 | 73 | 253 | 0.0 | 0.0 | 0.00 | 0.31 | 0.00 | 38 | 1037.0 |
| 20260831020234 | 73 | 252 | 0.0 | 0.0 | 0.00 | 0.34 | 0.00 | 38 | 1036.8 |
| 20260831015734 | 73 | 252 | 0.0 | 0.0 | 0.00 | 0.35 | 0.00 | 38 | 1036.8 |
| 20260831015231 | 73 | 250 | 0.0 | 0.0 | 0.00 | 0.36 | 0.00 | 39 | 1036.8 |
| 20260831014731 | 74 | 250 | 0.0 | 0.0 | 0.00 | 0.36 | 0.00 | 40 | 1036.7 |
| 20260831014234 | 74 | 250 | 0.0 | 0.0 | 0.00 | 0.36 | 0.00 | 40 | 1036.6 |
| 20260831013731 | 75 | 250 | 0.0 | 0.0 | 0.00 | 0.36 | 0.00 | 39 | 1036.5 |
| 20260831013234 | 75 | 250 | 0.0 | 0.0 | 0.00 | 0.36 | 0.00 | 38 | 1036.5 |
| 20260831012734 | 75 | 250 | 0.0 | 0.0 | 0.00 | 0.36 | 0.00 | 42 | 1036.4 |
| 20260831012231 | 75 | 338 | 0.0 | 0.0 | 0.00 | 0.36 | 0.00 | 43 | 1036.4 |
| 20260831011734 | 76 | 337 | 0.0 | 0.0 | 0.00 | 0.36 | 0.00 | 40 | 1036.3 |
| 20260831011234 | 77 | 337 | 0.0 | 0.0 | 0.00 | 0.36 | 0.00 | 40 | 1036.3 |
| 20260831010734 | 77 | 335 | 0.0 | 0.0 | 0.00 | 0.36 | 0.00 | 41 | 1036.2 |
| 20260831010231 | 78 | 336 | 0.0 | 0.0 | 0.00 | 0.36 | 0.00 | 41 | 1036.1 |
| 20260831005734 | 78 | 335 | 0.0 | 0.0 | 0.00 | 0.36 | 0.00 | 38 | 1036.0 |
| 20260831005234 | 77 | 335 | 0.0 | 0.0 | 0.00 | 0.36 | 0.00 | 38 | 1036.0 |
| 20260831004731 | 78 | 337 | 0.0 | 0.0 | 0.00 | 0.36 | 0.00 | 39 | 1036.0 |
| 20260831004231 | 78 | 337 | 0.0 | 0.0 | 0.00 | 0.36 | 0.00 | 38 | 1035.9 |
| 20260831003734 | 78 | 337 | 0.0 | 0.0 | 0.00 | 0.36 | 0.00 | 36 | 1035.9 |
| 20260831003231 | 79 | 336 | 0.0 | 0.0 | 0.00 | 0.36 | 0.00 | 36 | 1035.9 |
| 20260831002731 | 79 | 335 | 0.0 | 0.0 | 0.00 | 0.36 | 0.00 | 36 | 1035.8 |
| 20260831002231 | 79 | 336 | 0.0 | 0.0 | 0.00 | 0.36 | 0.00 | 36 | 1035.7 |
| 20260831001734 | 79 | 336 | 0.0 | 0.0 | 0.00 | 0.36 | 0.00 | 35 | 1035.7 |
| 20260831001231 | 79 | 5 | 0.0 | 0.0 | 0.00 | 0.36 | 0.00 | 36 | 1035.6 |
| 20260831000731 | 79 | 5 | 0.0 | 0.0 | 0.00 | 0.36 | 0.00 | 36 | 1035.5 |
| 20260831000233 | 79 | 5 | 0.0 | 0.0 | 0.00 | 0.36 | 0.00 | 36 | 1035.4 |
| 20260830235731 | 79 | 5 | 0.0 | 0.0 | 0.00 | 0.36 | 0.00 | 37 | 1035.3 |
| 20260830235231 | 79 | 25 | 0.0 | 0.0 | 0.00 | 0.36 | 0.00 | 37 | 1035.2 |
| 20260830234731 | 79 | 277 | 0.0 | 0.0 | 0.00 | 0.36 | 0.00 | 36 | 1035.1 |
| 20260830234231 | 79 | 304 | 0.0 | 0.0 | 0.00 | 0.36 | 0.00 | 36 | 1035.0 |
| 20260830233734 | 80 | 27 | 0.0 | 0.0 | 0.00 | 0.36 | 0.00 | 36 | 1035.1 |
| 20260830233231 | 79 | 318 | 0.0 | 0.0 | 0.00 | 0.36 | 0.00 | 37 | 1035.0 |
| 20260830232734 | 79 | 352 | 0.0 | 0.0 | 0.00 | 0.36 | 0.00 | 37 | 1034.9 |
| 20260830232234 | 79 | 352 | 0.0 | 0.0 | 0.00 | 0.36 | 0.00 | 36 | 1035.0 |
| 20260830231734 | 79 | 94 | 0.0 | 0.0 | 0.00 | 0.36 | 0.00 | 38 | 1034.9 |
| 20260830231234 | 80 | 122 | 0.0 | 0.0 | 0.00 | 0.36 | 0.00 | 36 | 1034.9 |